| time (UTC) | temp F | wind direction | speed MPH | gust MPH | rain 1hr in | rain 24hr in | rain mn in | humidity % | barometer mb |
| 20260504044300 | 83 | 0.0 | 0.0 | 0.00 | 0.00 | 0.00 | 19 | 1008.7 | |
| 20260504043259 | 84 | 0.0 | 0.0 | 0.00 | 0.00 | 0.00 | 19 | 1008.4 | |
| 20260504042258 | 84 | 0.0 | 0.0 | 0.00 | 0.00 | 0.00 | 19 | 1008.4 | |
| 20260504041257 | 84 | 0.0 | 0.0 | 0.00 | 0.00 | 0.00 | 17 | 1008.4 | |
| 20260504040256 | 85 | 0.0 | 0.0 | 0.00 | 0.00 | 0.00 | 17 | 1008.0 | |
| 20260504035255 | 85 | 0.0 | 0.0 | 0.00 | 0.00 | 0.00 | 17 | 1008.0 | |
| 20260504034254 | 85 | 0.0 | 0.0 | 0.00 | 0.00 | 0.00 | 17 | 1007.6 | |
| 20260504033253 | 85 | 0.0 | 0.0 | 0.00 | 0.00 | 0.00 | 17 | 1007.3 | |
| 20260504032252 | 86 | 0.0 | 0.0 | 0.00 | 0.00 | 0.00 | 16 | 1007.0 | |
| 20260504031251 | 86 | 0.0 | 0.0 | 0.00 | 0.00 | 0.00 | 16 | 1007.0 | |
| 20260504030250 | 87 | 0.0 | 0.0 | 0.00 | 0.00 | 0.00 | 16 | 1006.7 | |
| 20260504025249 | 88 | 0.0 | 0.0 | 0.00 | 0.00 | 0.00 | 16 | 1006.7 | |
| 20260504024249 | 88 | 0.0 | 0.0 | 0.00 | 0.00 | 0.00 | 15 | 1006.3 | |
| 20260504023248 | 89 | 0.0 | 0.0 | 0.00 | 0.00 | 0.00 | 15 | 1006.0 | |
| 20260504022216 | 89 | 0.0 | 0.0 | 0.00 | 0.00 | 0.00 | 14 | 1006.0 | |
| 20260504021215 | 90 | 0.0 | 0.0 | 0.00 | 0.00 | 0.00 | 14 | 1005.7 | |
| 20260504020214 | 91 | 0.0 | 0.0 | 0.00 | 0.00 | 0.00 | 14 | 1005.7 | |
| 20260504015213 | 92 | 0.0 | 0.0 | 0.00 | 0.00 | 0.00 | 14 | 1005.4 | |
| 20260504014212 | 93 | 0.0 | 0.0 | 0.00 | 0.00 | 0.00 | 12 | 1005.4 | |
| 20260504013211 | 94 | 0.0 | 0.0 | 0.00 | 0.00 | 0.00 | 12 | 1005.1 | |
| 20260504012139 | 94 | 0.0 | 0.0 | 0.00 | 0.00 | 0.00 | 12 | 1005.1 | |
| 20260504011105 | 95 | 0.0 | 0.0 | 0.00 | 0.00 | 0.00 | 12 | 1005.5 | |
| 20260504010105 | 96 | 0.0 | 0.0 | 0.00 | 0.00 | 0.00 | 11 | 1005.5 | |
| 20260504005104 | 96 | 0.0 | 0.0 | 0.00 | 0.00 | 0.00 | 11 | 1005.2 | |
| 20260504004032 | 97 | 0.0 | 0.0 | 0.00 | 0.00 | 0.00 | 11 | 1005.5 | |
| 20260504002928 | 97 | 0.0 | 0.0 | 0.00 | 0.00 | 0.00 | 11 | 1005.2 | |
| 20260504001856 | 98 | 0.0 | 0.0 | 0.00 | 0.00 | 0.00 | 10 | 1005.2 | |
| 20260504000855 | 98 | 0.0 | 0.0 | 0.00 | 0.00 | 0.00 | 11 | 1005.2 | |
| 20260503235854 | 97 | 0.0 | 0.0 | 0.00 | 0.00 | 0.00 | 11 | 1005.6 | |
| 20260503234852 | 98 | 0.0 | 0.0 | 0.00 | 0.00 | 0.00 | 11 | 1005.3 | |
| 20260503233851 | 98 | 0.0 | 0.0 | 0.00 | 0.00 | 0.00 | 11 | 1005.6 | |
| 20260503232850 | 98 | 0.0 | 0.0 | 0.00 | 0.00 | 0.00 | 11 | 1005.3 | |
| 20260503231849 | 98 | 0.0 | 0.0 | 0.00 | 0.00 | 0.00 | 10 | 1005.6 | |
| 20260503230847 | 98 | 0.0 | 0.0 | 0.00 | 0.00 | 0.00 | 11 | 1005.7 | |
| 20260503225846 | 98 | 0.0 | 0.0 | 0.00 | 0.00 | 0.00 | 11 | 1005.7 | |
| 20260503224845 | 99 | 0.0 | 0.0 | 0.00 | 0.00 | 0.00 | 12 | 1006.0 | |
| 20260503223844 | 99 | 0.0 | 0.0 | 0.00 | 0.00 | 0.00 | 12 | 1006.0 | |
| 20260503222843 | 99 | 0.0 | 0.0 | 0.00 | 0.00 | 0.00 | 12 | 1006.0 | |
| 20260503221842 | 98 | 0.0 | 0.0 | 0.00 | 0.00 | 0.00 | 12 | 1006.4 | |
| 20260503220841 | 97 | 0.0 | 0.0 | 0.00 | 0.00 | 0.00 | 12 | 1006.3 | |
| 20260503213243 | 98 | 0.0 | 0.0 | 0.00 | 0.00 | 0.00 | 12 | 1007.4 | |
| 20260503212242 | 97 | 0.0 | 0.0 | 0.00 | 0.00 | 0.00 | 12 | 1007.4 | |
| 20260503211139 | 97 | 0.0 | 0.0 | 0.00 | 0.00 | 0.00 | 12 | 1007.7 | |
| 20260503210138 | 97 | 0.0 | 0.0 | 0.00 | 0.00 | 0.00 | 12 | 1008.0 | |
| 20260503205137 | 97 | 0.0 | 0.0 | 0.00 | 0.00 | 0.00 | 12 | 1008.0 | |
| 20260503204137 | 96 | 0.0 | 0.0 | 0.00 | 0.00 | 0.00 | 14 | 1008.3 | |
| 20260503203135 | 97 | 0.0 | 0.0 | 0.00 | 0.00 | 0.00 | 14 | 1008.4 | |
| 20260503202134 | 96 | 0.0 | 0.0 | 0.00 | 0.00 | 0.00 | 14 | 1008.7 | |
| 20260503201134 | 96 | 0.0 | 0.0 | 0.00 | 0.00 | 0.00 | 15 | 1008.7 | |
| 20260503200131 | 96 | 0.0 | 0.0 | 0.00 | 0.00 | 0.00 | 15 | 1008.7 | |
| 20260503195130 | 96 | 0.0 | 0.0 | 0.00 | 0.00 | 0.00 | 15 | 1008.7 | |
| 20260503194129 | 95 | 0.0 | 0.0 | 0.00 | 0.00 | 0.00 | 15 | 1008.7 | |
| 20260503193128 | 95 | 0.0 | 0.0 | 0.00 | 0.00 | 0.00 | 16 | 1009.0 | |
| 20260503192127 | 95 | 0.0 | 0.0 | 0.00 | 0.00 | 0.00 | 16 | 1009.3 | |
| 20260503191126 | 94 | 0.0 | 0.0 | 0.00 | 0.00 | 0.00 | 17 | 1009.3 | |
| 20260503190125 | 94 | 0.0 | 0.0 | 0.00 | 0.00 | 0.00 | 17 | 1009.3 | |
| 20260503185123 | 93 | 0.0 | 0.0 | 0.00 | 0.00 | 0.00 | 18 | 1009.6 | |
| 20260503184122 | 92 | 0.0 | 0.0 | 0.00 | 0.00 | 0.00 | 19 | 1009.6 | |
| 20260503183121 | 91 | 0.0 | 0.0 | 0.00 | 0.00 | 0.00 | 19 | 1009.9 | |
| 20260503182120 | 91 | 0.0 | 0.0 | 0.00 | 0.00 | 0.00 | 20 | 1009.9 | |
| 20260503181120 | 91 | 0.0 | 0.0 | 0.00 | 0.00 | 0.00 | 19 | 1009.9 | |
| 20260503180119 | 90 | 0.0 | 0.0 | 0.00 | 0.00 | 0.00 | 20 | 1010.2 | |
| 20260503175118 | 89 | 0.0 | 0.0 | 0.00 | 0.00 | 0.00 | 20 | 1010.2 | |
| 20260503174117 | 89 | 0.0 | 0.0 | 0.00 | 0.00 | 0.00 | 21 | 1010.1 | |
| 20260503173117 | 88 | 0.0 | 0.0 | 0.00 | 0.00 | 0.00 | 21 | 1010.5 | |
| 20260503172116 | 88 | 0.0 | 0.0 | 0.00 | 0.00 | 0.00 | 22 | 1010.5 | |
| 20260503171115 | 87 | 0.0 | 0.0 | 0.00 | 0.00 | 0.00 | 22 | 1010.4 | |
| 20260503150856 | 81 | 0.0 | 0.0 | 0.00 | 0.00 | 0.00 | 26 | 1010.4 | |
| 20260503130609 | 78 | 0.0 | 0.0 | 0.00 | 0.00 | 0.00 | 27 | 1009.8 | |
| 20260503110525 | 79 | 0.0 | 0.0 | 0.00 | 0.00 | 0.00 | 24 | 1009.6 | |
| 20260503090443 | 80 | 0.0 | 0.0 | 0.00 | 0.00 | 0.00 | 20 | 1009.6 | |
| 20260503081111 | 81 | 0.0 | 0.0 | 0.00 | 0.00 | 0.00 | 19 | 1010.0 | |
| 20260503080110 | 82 | 0.0 | 0.0 | 0.00 | 0.00 | 0.00 | 19 | 1009.9 | |
| 20260503072003 | 80 | 0.0 | 0.0 | 0.00 | 0.00 | 0.00 | 19 | 1009.8 | |
| 20260503071003 | 80 | 0.0 | 0.0 | 0.00 | 0.00 | 0.00 | 19 | 1009.8 | |
| 20260503060209 | 81 | 0.0 | 0.0 | 0.00 | 0.00 | 0.00 | 17 | 1009.4 | |
| 20260503055106 | 81 | 0.0 | 0.0 | 0.00 | 0.00 | 0.00 | 17 | 1009.8 | |
| 20260503054105 | 81 | 0.0 | 0.0 | 0.00 | 0.00 | 0.00 | 16 | 1009.4 | |
| 20260503050306 | 82 | 0.0 | 0.0 | 0.00 | 0.00 | 0.00 | 16 | 1009.4 | |
| 20260503045234 | 82 | 0.0 | 0.0 | 0.00 | 0.00 | 0.00 | 16 | 1009.4 |